This is the latest recevied weather packets stored in our database for station/object KE8AFF-13. If no packets are shown the sender has not sent any weather packets the latest 1 day(s).
| Time | Temp. | Humidity | Pressure | Rain* | Wind** | Luminosity | Snow |
|---|---|---|---|---|---|---|---|
| 1778069568 | 6.67° C | 93% | 1010.3 hPa | 0 mm | - | 42 W/m² | - |
| 1778068359 | 6.67° C | 93% | 1009.8 hPa | 0 mm | - | 21 W/m² | - |
| 1778067452 | 6.11° C | 94% | 1009.3 hPa | 0 mm | - | 38 W/m² | - |
| 1778067149 | 6.11° C | 94% | 1009.5 hPa | 0 mm | - | 32 W/m² | - |
| 1778066544 | 5.56° C | 95% | 1009.2 hPa | 0 mm | - | 31 W/m² | - |
| 1778065635 | 5.56° C | 98% | 1009.4 hPa | 0 mm | - | 10 W/m² | - |
| 1778065333 | 5.56° C | 99% | 1009.6 hPa | 0 mm | - | 8 W/m² | - |
| 1778065029 | 5° C | 99% | 1010 hPa | 0 mm | - | 3 W/m² | - |
| 1778064424 | 5° C | 99% | 1009.3 hPa | 0 mm | - | 0 W/m² | - |
| 1778063515 | 5° C | 99% | 1008.6 hPa | 0 mm | - | 0 W/m² | - |
| 1778062607 | 5.56° C | 99% | 1009 hPa | 0 mm | - | 0 W/m² | - |
| 1778062304 | 5.56° C | 99% | 1008.7 hPa | 0 mm | - | 0 W/m² | - |
| 1778061399 | 6.11° C | 99% | 1008.5 hPa | 0 mm | - | 0 W/m² | - |
| 1778061095 | 6.67° C | 99% | 1008.1 hPa | 0 mm | - | 0 W/m² | - |
| 1778059885 | 7.22° C | 99% | 1008.2 hPa | 0 mm | - | 0 W/m² | - |
| 1778059280 | 7.22° C | 99% | 1007.7 hPa | 0 mm | - | 0 W/m² | - |
| 1778058978 | 7.22° C | 99% | 1007.4 hPa | 0 mm | - | 0 W/m² | - |
| 1778058069 | 6.67° C | 99% | 1007.4 hPa | 0.51 mm | - | 0 W/m² | - |
| 1778057766 | 6.67° C | 99% | 1007.9 hPa | 0 mm | - | 0 W/m² | - |
| 1778057463 | 6.67° C | 99% | 1008.2 hPa | 0 mm | - | 0 W/m² | - |
| 1778056553 | 6.67° C | 99% | 1008.4 hPa | 1.27 mm | - | 0 W/m² | - |
| 1778056250 | 6.67° C | 99% | 1008.4 hPa | 0.51 mm | - | 0 W/m² | - |
| 1778055341 | 6.67° C | 99% | 1008.2 hPa | 0 mm | - | 0 W/m² | - |
| 1778055038 | 6.67° C | 99% | 1007.9 hPa | 0 mm | - | 0 W/m² | - |
| 1778054735 | 7.22° C | 99% | 1008 hPa | 0 mm | - | 0 W/m² | - |
* Rain latest hour (hover to see other rain measurements)
** Current wind speed in m/s (hover to see current wind gust speed)